sat.trackr.live / text

‹ back to catalog

STARLINK-32825

NORAD 62825 · 2025-018V

PAYLOAD ACTIVE UNKNOWN

§ Identity

Operator
Country
US
Launch date
2025-01-24
Launch site
AFWTR
Launch vehicle
Mass (kg)
RCS (m²)

Purposes: comms

External: N2YO · Heavens-Above · Gunter

§ Orbital elements

Epoch: 2026-09-21T21:18:41.687136Z

Period
93.85 min
Inclination
53.1588°
Eccentricity
0.0001139
Mean motion
15.34404126 rev/d
Perigee alt
461.9 km
Apogee alt
463.5 km
Semi-major
6,840.8 km
B*
4.6678e-4
RAAN
114.9797°
Arg perigee
96.6352°
Mean anomaly
263.4780°
Rev number
9,325

§ Raw data

STARLINK-328251 62825U 25018V   26264.88798249  .00015429  00000+0  46678-3 0  99982 62825  53.1588 114.9797 0001139  96.6352 263.4780 15.34404126 93257

JSON: /api/v1/satellites/62825 · /tle

For live sub-satellite position, see the globe view (requires WebGL).

§ Visibility from observer

Set your observer location to see the next 7 days of passes ≥ 10°. The values pass through the URL so the page stays shareable.

No JS? Fill the form by hand. The geolocation button needs JavaScript.